Meteor 1-24 Rocket - Orbit

View from above orbital plane
View from above orbital plane
View from above satellite
View from above satellite

Ground track
Ground track

The orbit data is extracted from the following two-line orbital elements,

1 08800U 76032B   13141.37845023 -.00000054  00000-0 -36655-4 0  7499
2 08800 081.2515 224.4724 0095064 077.3355 351.4934 14.09874831908527
Epoch (UTC): 21 May 2013 09:04:58
Eccentricity: 0.0095064
inclination: 81.2515°
perigee height: 791 km
apogee height: 928 km
right ascension of ascending node: 224.4724°
argument of perigee: 77.3355°
revolutions per day: 14.09874831
mean anomaly at epoch: 351.4934°
orbit number at epoch: 90852

The dashed part of the orbit path shows where the satellite is in the earth's shadow,  

Developed and maintained by Chris Peat, Heavens-Above GmbH. Please read the updated FAQ before sending e-mail. Imprint. DLR